STARLINK-32555, 61918

Orbit data source: Space-Track

STARLINK-32555, 61918 is a payload satellite owned by SpaceX/Seattle (US) in LEO that was launched on Mon, 11 Nov 2024 UTC via an FALCON 9 launch vehicle from the Air Force Eastern Test Range (AFETR). Payload-class satellites include a variety of spacecraft equipped with specific instruments for various scientific and technological missions. These include communications satellites like Starlink; space stations such as the ISS; scientific satellites like the Hubble; Earth observation satellites from companies like Planet Labs, Umbra, and HawkEye 360; GPS; miniature CubeSats for education and research; and military/defense satellites.

Loading next visibility...
Identifier
61918, 2024-207G
Orbit
LEO
Country
Flag of USUS
Related business
Manufacturer
SpaceX/Seattle
Mission
Operational Commercial Communications
Bus & Motor
STARLINK V2M, Unknown motor
Mass
730 kg wet, ~700 kg dry
Launch date (UTC)
2024-11-11 (2 years ago)
Launch vehicle
FALCON 9
Launch site
Air Force Eastern Test Range (AFETR)
Object type
Payload
Rocket body
Debris
Shape & HBR
Box + 2 Pan, 17.7 m
Radar Cross Section
33.884 m², Large (>1 m²)

Expand to show TLE details & history
Last TLE update: 10 hours ago

TLE from 10 hours ago
0 STARLINK-32555
1 61918U 24207G   26145.49547238  .00013480  00000-0  49843-3 0  9997
2 61918  43.0020 211.8644 0001246 275.3733  84.6977 15.27582842 86420
Epoch: 2026-05-25T11:53Z
TLE epoch observation values (Epoch: 2026-05-25T11:53:28.813Z)
Latitude
0.00001°
Longitude
150.41191°
Altitude
482.737 km
Speed
7.626 km/s
True Right ascension
14h 07m 27s
True Declination
0° 00' 00"
Sunlit
Object was in full shadow at epoch
Visualization orbit readout
Latitude
Unknown
Longitude
Unknown
Altitude
Unknown
Speed
Unknown
Apparent Right ascension
Unknown
Apparent Declination
Unknown
Sunlit
N/A
Visualization observer readout
Local Sidereal Time
07:16:43
Azimuth
Unknown
Elevation
Unknown
Doppler factor
Unknown
Orbital elements
Apogee altitude
485.841 km
Perigee altitude
484.13 km
Semi-major axis
6,863.122 km
Eccentricity
0.00012
Inclination
43.002°
RAAN
211.8644°
Arg. of periapsis
275.3733°
True anomaly
84.71192°
Mean anomaly
84.6977°
Eccentric anomaly
84.70481°
Mean motion
3.81734 °/min
Orbital period
94.31 mins
BSTAR
0.00049843
Loading maneuver chart data...
Computing Atmospheric mass density...
Loading historical data...
Loading historical data...
Loading historical data...
Loading historical data...
Loading historical data...
Loading historical data...
Loading historical data...

Documentation

Showing up to 5 results
|